Location: Campillo
(40.8621°N, 4.2488°W)
Time: 12:35:46
(UTC+00:00)

Cosmos 1805 Rocket - Visible Passes

Search period start: 21 September 2021 00:00
Search period end: 01 October 2021 00:00
Orbit: 605 x 630 km, 82.5° (Epoch: 21 September)

Date Brightness Start Highest point End Pass type
(mag) Time Alt. Az. Time Alt. Az. Time Alt. Az.
21 Sep 6.3 02:38:29 10° NNE 02:39:35 16° NNE 02:39:35 16° NNE visible
21 Sep 5.9 04:16:22 10° NW 04:16:39 11° NW 04:16:39 11° NW visible
22 Sep 6.3 02:55:00 10° N 02:55:36 14° N 02:55:36 14° N visible
